Time,TemperatureF,DewpointF,PressureIn,WindDirection,WindDirectionDegrees,WindSpeedMPH,WindSpeedGustMPH,Humidity,HourlyPrecipIn,Conditions,Clouds,dailyrainin,SoftwareType,DateUTC
2013-01-11 00:03:00,44.0,-99.9,-100.00,SE,139,2.0,-999.0,-999,0.00,,,0.31,,2013-01-11 06:03:00,
2013-01-11 00:12:00,44.0,-99.9,-100.00,SE,139,2.0,-999.0,-999,0.00,,,0.31,,2013-01-11 06:12:00,
2013-01-11 00:22:00,44.0,-99.9,-100.00,SE,139,2.0,-999.0,-999,0.00,,,0.31,,2013-01-11 06:22:00,
2013-01-11 00:33:00,44.0,-99.9,-100.00,SE,142,3.0,-999.0,-999,0.00,,,0.31,,2013-01-11 06:33:00,
2013-01-11 00:42:00,44.0,-99.9,-100.00,SE,142,3.0,-999.0,-999,0.00,,,0.31,,2013-01-11 06:42:00,
2013-01-11 00:52:00,44.0,-99.9,-100.00,SE,142,3.0,-999.0,-999,0.00,,,0.31,,2013-01-11 06:52:00,
2013-01-11 01:02:00,44.0,-99.9,-100.00,South,178,2.0,-999.0,-999,0.00,,,0.31,,2013-01-11 07:02:00,
2013-01-11 01:12:00,44.0,-99.9,-100.00,South,178,2.0,-999.0,-999,0.00,,,0.31,,2013-01-11 07:12:00,
2013-01-11 01:22:00,44.0,-99.9,-100.00,South,178,2.0,-999.0,-999,0.00,,,0.31,,2013-01-11 07:22:00,
2013-01-11 01:32:00,44.0,-99.9,-100.00,SSW,199,3.0,-999.0,-999,0.00,,,0.31,,2013-01-11 07:32:00,
2013-01-11 01:43:00,44.0,-99.9,-100.00,SSW,199,3.0,-999.0,-999,0.00,,,0.31,,2013-01-11 07:43:00,
2013-01-11 01:53:00,44.0,-99.9,-100.00,SSW,199,3.0,-999.0,-999,0.00,,,0.31,,2013-01-11 07:53:00,
2013-01-11 02:02:00,44.0,-99.9,-100.00,SSE,167,3.0,-999.0,-999,0.00,,,0.31,,2013-01-11 08:02:00,
2013-01-11 02:12:00,44.0,-99.9,-100.00,SSE,167,3.0,-999.0,-999,0.00,,,0.31,,2013-01-11 08:12:00,
2013-01-11 02:22:00,44.0,-99.9,-100.00,SSE,167,3.0,-999.0,-999,0.00,,,0.31,,2013-01-11 08:22:00,
2013-01-11 02:32:00,44.0,-99.9,-100.00,SSE,162,2.0,-999.0,-999,0.00,,,0.31,,2013-01-11 08:32:00,
2013-01-11 02:43:00,44.0,-99.9,-100.00,SSE,162,2.0,-999.0,-999,0.00,,,0.31,,2013-01-11 08:43:00,
2013-01-11 02:53:00,44.0,-99.9,-100.00,SSE,162,2.0,-999.0,-999,0.00,,,0.31,,2013-01-11 08:53:00,
2013-01-11 03:03:00,46.0,-99.9,-100.00,SSW,200,3.0,-999.0,-999,0.00,,,0.31,,2013-01-11 09:03:00,
2013-01-11 03:12:00,46.0,-99.9,-100.00,SSW,200,3.0,-999.0,-999,0.00,,,0.31,,2013-01-11 09:12:00,
2013-01-11 03:23:00,46.0,-99.9,-100.00,SSW,200,3.0,-999.0,-999,0.00,,,0.31,,2013-01-11 09:23:00,
2013-01-11 03:32:00,47.0,-99.9,-100.00,SSW,201,7.0,-999.0,-999,0.00,,,0.31,,2013-01-11 09:32:00,
2013-01-11 03:43:00,47.0,-99.9,-100.00,SSW,201,7.0,-999.0,-999,0.00,,,0.31,,2013-01-11 09:43:00,
2013-01-11 03:53:00,47.0,-99.9,-100.00,SSW,201,7.0,-999.0,-999,0.00,,,0.31,,2013-01-11 09:53:00,
2013-01-11 04:02:00,47.0,-99.9,-100.00,SSW,208,7.0,-999.0,-999,0.00,,,0.31,,2013-01-11 10:02:00,
2013-01-11 04:12:00,47.0,-99.9,-100.00,SSW,208,7.0,-999.0,-999,0.00,,,0.31,,2013-01-11 10:12:00,
2013-01-11 04:22:00,47.0,-99.9,-100.00,SSW,208,7.0,-999.0,-999,0.00,,,0.31,,2013-01-11 10:22:00,
2013-01-11 04:32:00,47.0,-99.9,-100.00,SSW,212,7.0,-999.0,-999,0.00,,,0.31,,2013-01-11 10:32:00,
2013-01-11 04:43:00,47.0,-99.9,-100.00,SSW,212,7.0,-999.0,-999,0.00,,,0.31,,2013-01-11 10:43:00,
2013-01-11 04:53:00,47.0,-99.9,-100.00,SSW,212,7.0,-999.0,-999,0.00,,,0.31,,2013-01-11 10:53:00,
2013-01-11 05:03:00,47.0,-99.9,-100.00,SSW,207,5.0,-999.0,-999,0.00,,,0.31,,2013-01-11 11:03:00,
2013-01-11 05:12:00,47.0,-99.9,-100.00,SSW,207,5.0,-999.0,-999,0.00,,,0.31,,2013-01-11 11:12:00,
2013-01-11 05:23:00,47.0,-99.9,-100.00,SSW,207,5.0,-999.0,-999,0.00,,,0.31,,2013-01-11 11:23:00,
2013-01-11 05:33:00,47.0,-99.9,-100.00,SSW,202,6.0,-999.0,-999,0.00,,,0.31,,2013-01-11 11:33:00,
2013-01-11 05:43:00,47.0,-99.9,-100.00,SSW,202,6.0,-999.0,-999,0.00,,,0.31,,2013-01-11 11:43:00,
2013-01-11 05:53:00,47.0,-99.9,-100.00,SSW,202,6.0,-999.0,-999,0.00,,,0.31,,2013-01-11 11:53:00,
2013-01-11 06:03:00,47.0,-99.9,-100.00,South,190,3.0,-999.0,-999,0.00,,,0.31,,2013-01-11 12:03:00,
2013-01-11 06:13:00,47.0,-99.9,-100.00,South,190,3.0,-999.0,-999,0.00,,,0.31,,2013-01-11 12:13:00,
2013-01-11 06:23:00,47.0,-99.9,-100.00,South,190,3.0,-999.0,-999,0.00,,,0.31,,2013-01-11 12:23:00,
2013-01-11 06:33:00,47.0,-99.9,-100.00,SSW,208,6.0,-999.0,-999,0.00,,,0.31,,2013-01-11 12:33:00,
2013-01-11 06:43:00,47.0,-99.9,-100.00,SSW,208,6.0,-999.0,-999,0.00,,,0.31,,2013-01-11 12:43:00,
2013-01-11 06:53:00,47.0,-99.9,-100.00,SSW,208,6.0,-999.0,-999,0.00,,,0.31,,2013-01-11 12:53:00,
2013-01-11 07:03:00,47.0,-99.9,-100.00,SW,219,8.0,-999.0,-999,0.00,,,0.31,,2013-01-11 13:03:00,
2013-01-11 07:13:00,47.0,-99.9,-100.00,SW,219,8.0,-999.0,-999,0.00,,,0.31,,2013-01-11 13:13:00,
2013-01-11 07:23:00,47.0,-99.9,-100.00,SW,219,8.0,-999.0,-999,0.00,,,0.31,,2013-01-11 13:23:00,
2013-01-11 07:33:00,48.0,-99.9,-100.00,SSW,203,6.0,-999.0,-999,0.00,,,0.31,,2013-01-11 13:33:00,
2013-01-11 07:43:00,48.0,-99.9,-100.00,SSW,203,6.0,-999.0,-999,0.00,,,0.31,,2013-01-11 13:43:00,
2013-01-11 07:53:00,48.0,-99.9,-100.00,SSW,203,6.0,-999.0,-999,0.00,,,0.31,,2013-01-11 13:53:00,
2013-01-11 08:03:00,48.0,-99.9,-100.00,SSW,198,3.0,-999.0,-999,0.00,,,0.31,,2013-01-11 14:03:00,
2013-01-11 08:12:00,48.0,-99.9,-100.00,SSW,198,3.0,-999.0,-999,0.00,,,0.31,,2013-01-11 14:12:00,
2013-01-11 08:23:00,48.0,-99.9,-100.00,SSW,198,3.0,-999.0,-999,0.00,,,0.31,,2013-01-11 14:23:00,
2013-01-11 08:33:00,48.0,-99.9,-100.00,SSW,197,5.0,-999.0,-999,0.00,,,0.31,,2013-01-11 14:33:00,
2013-01-11 08:43:00,48.0,-99.9,-100.00,SSW,197,5.0,-999.0,-999,0.00,,,0.31,,2013-01-11 14:43:00,
2013-01-11 08:53:00,48.0,-99.9,-100.00,SSW,197,5.0,-999.0,-999,0.00,,,0.31,,2013-01-11 14:53:00,
2013-01-11 09:03:00,49.0,-99.9,-100.00,South,191,5.0,-999.0,-999,0.00,,,0.31,,2013-01-11 15:03:00,
2013-01-11 09:13:00,49.0,-99.9,-100.00,South,191,5.0,-999.0,-999,0.00,,,0.31,,2013-01-11 15:13:00,
2013-01-11 09:23:00,49.0,-99.9,-100.00,South,191,5.0,-999.0,-999,0.00,,,0.31,,2013-01-11 15:23:00,
2013-01-11 09:33:00,50.0,-99.9,-100.00,SSW,195,6.0,-999.0,-999,0.00,,,0.31,,2013-01-11 15:33:00,
2013-01-11 09:43:00,50.0,-99.9,-100.00,SSW,195,6.0,-999.0,-999,0.00,,,0.31,,2013-01-11 15:43:00,
2013-01-11 09:53:00,50.0,-99.9,-100.00,SSW,195,6.0,-999.0,-999,0.00,,,0.31,,2013-01-11 15:53:00,
2013-01-11 10:03:00,51.0,-99.9,-100.00,SSW,193,7.0,-999.0,-999,0.00,,,0.31,,2013-01-11 16:03:00,
2013-01-11 10:13:00,51.0,-99.9,-100.00,SSW,193,7.0,-999.0,-999,0.00,,,0.31,,2013-01-11 16:13:00,
2013-01-11 10:23:00,51.0,-99.9,-100.00,SSW,193,7.0,-999.0,-999,0.00,,,0.31,,2013-01-11 16:23:00,
2013-01-11 10:33:00,51.0,-99.9,-100.00,South,182,6.0,-999.0,-999,0.00,,,0.31,,2013-01-11 16:33:00,
2013-01-11 10:43:00,51.0,-99.9,-100.00,South,182,6.0,-999.0,-999,0.00,,,0.31,,2013-01-11 16:43:00,
2013-01-11 10:53:00,51.0,-99.9,-100.00,South,182,6.0,-999.0,-999,0.00,,,0.31,,2013-01-11 16:53:00,
2013-01-11 11:03:00,51.0,-99.9,-100.00,South,177,7.0,-999.0,-999,0.00,,,0.31,,2013-01-11 17:03:00,
2013-01-11 11:12:00,51.0,-99.9,-100.00,South,177,7.0,-999.0,-999,0.00,,,0.31,,2013-01-11 17:12:00,
2013-01-11 11:23:00,51.0,-99.9,-100.00,South,177,7.0,-999.0,-999,0.00,,,0.31,,2013-01-11 17:23:00,
2013-01-11 11:33:00,53.0,-99.9,-100.00,South,182,7.0,-999.0,-999,0.00,,,0.31,,2013-01-11 17:33:00,
2013-01-11 11:43:00,53.0,-99.9,-100.00,South,182,7.0,-999.0,-999,0.00,,,0.31,,2013-01-11 17:43:00,
2013-01-11 11:53:00,53.0,-99.9,-100.00,South,182,7.0,-999.0,-999,0.00,,,0.31,,2013-01-11 17:53:00,
2013-01-11 12:04:00,54.0,-99.9,-100.00,South,189,6.0,-999.0,-999,0.00,,,0.29,,2013-01-11 18:04:00,
2013-01-11 12:13:00,54.0,-99.9,-100.00,South,189,6.0,-999.0,-999,0.00,,,0.29,,2013-01-11 18:13:00,
2013-01-11 12:24:00,54.0,-99.9,-100.00,South,189,6.0,-999.0,-999,0.00,,,0.29,,2013-01-11 18:24:00,
2013-01-11 12:33:00,56.0,-99.9,-100.00,South,183,11.0,-999.0,-999,0.00,,,0.28,,2013-01-11 18:33:00,
2013-01-11 12:43:00,56.0,-99.9,-100.00,South,183,11.0,-999.0,-999,0.00,,,0.28,,2013-01-11 18:43:00,
2013-01-11 12:53:00,56.0,-99.9,-100.00,South,183,11.0,-999.0,-999,0.00,,,0.28,,2013-01-11 18:53:00,
2013-01-11 13:03:00,57.0,-99.9,-100.00,South,182,8.0,-999.0,-999,0.00,,,0.28,,2013-01-11 19:03:00,
2013-01-11 13:13:00,57.0,-99.9,-100.00,South,182,8.0,-999.0,-999,0.00,,,0.28,,2013-01-11 19:13:00,
2013-01-11 13:23:00,57.0,-99.9,-100.00,South,182,8.0,-999.0,-999,0.00,,,0.28,,2013-01-11 19:23:00,
2013-01-11 13:33:00,58.0,-99.9,-100.00,South,190,10.0,-999.0,-999,0.00,,,0.28,,2013-01-11 19:33:00,
2013-01-11 13:43:00,58.0,-99.9,-100.00,South,190,10.0,-999.0,-999,0.00,,,0.28,,2013-01-11 19:43:00,
2013-01-11 13:54:00,58.0,-99.9,-100.00,South,190,10.0,-999.0,-999,0.00,,,0.28,,2013-01-11 19:54:00,
2013-01-11 14:03:00,59.0,-99.9,-100.00,South,184,11.0,-999.0,-999,0.00,,,0.28,,2013-01-11 20:03:00,
2013-01-11 14:13:00,59.0,-99.9,-100.00,South,184,11.0,-999.0,-999,0.00,,,0.28,,2013-01-11 20:13:00,
2013-01-11 14:23:00,59.0,-99.9,-100.00,South,184,11.0,-999.0,-999,0.00,,,0.28,,2013-01-11 20:23:00,
2013-01-11 14:33:00,59.0,-99.9,-100.00,South,178,8.0,-999.0,-999,0.00,,,0.28,,2013-01-11 20:33:00,
2013-01-11 14:43:00,59.0,-99.9,-100.00,South,178,8.0,-999.0,-999,0.00,,,0.28,,2013-01-11 20:43:00,
2013-01-11 14:53:00,59.0,-99.9,-100.00,South,178,8.0,-999.0,-999,0.00,,,0.28,,2013-01-11 20:53:00,
2013-01-11 15:03:00,59.0,-99.9,-100.00,South,179,9.0,-999.0,-999,0.00,,,0.28,,2013-01-11 21:03:00,
2013-01-11 15:13:00,59.0,-99.9,-100.00,South,179,9.0,-999.0,-999,0.00,,,0.28,,2013-01-11 21:13:00,
2013-01-11 15:23:00,59.0,-99.9,-100.00,South,179,9.0,-999.0,-999,0.00,,,0.28,,2013-01-11 21:23:00,
2013-01-11 15:33:00,59.0,-99.9,-100.00,South,174,8.0,-999.0,-999,0.00,,,0.28,,2013-01-11 21:33:00,
2013-01-11 15:43:00,59.0,-99.9,-100.00,South,174,8.0,-999.0,-999,0.00,,,0.28,,2013-01-11 21:43:00,
2013-01-11 15:53:00,59.0,-99.9,-100.00,South,174,8.0,-999.0,-999,0.00,,,0.28,,2013-01-11 21:53:00,
2013-01-11 16:03:00,58.0,-99.9,-100.00,South,176,6.0,-999.0,-999,0.00,,,0.28,,2013-01-11 22:03:00,
2013-01-11 16:13:00,58.0,-99.9,-100.00,South,176,6.0,-999.0,-999,0.00,,,0.28,,2013-01-11 22:13:00,
2013-01-11 16:23:00,58.0,-99.9,-100.00,South,176,6.0,-999.0,-999,0.00,,,0.28,,2013-01-11 22:23:00,
2013-01-11 16:33:00,58.0,-99.9,-100.00,SSE,164,8.0,-999.0,-999,0.00,,,0.28,,2013-01-11 22:33:00,
2013-01-11 16:43:00,58.0,-99.9,-100.00,SSE,164,8.0,-999.0,-999,0.00,,,0.28,,2013-01-11 22:43:00,
2013-01-11 16:53:00,58.0,-99.9,-100.00,SSE,164,8.0,-999.0,-999,0.00,,,0.28,,2013-01-11 22:53:00,
2013-01-11 17:03:00,58.0,-99.9,-100.00,South,171,7.0,-999.0,-999,0.00,,,0.28,,2013-01-11 23:03:00,
2013-01-11 17:13:00,58.0,-99.9,-100.00,South,171,7.0,-999.0,-999,0.00,,,0.28,,2013-01-11 23:13:00,
2013-01-11 17:23:00,58.0,-99.9,-100.00,South,171,7.0,-999.0,-999,0.00,,,0.28,,2013-01-11 23:23:00,
2013-01-11 17:33:00,58.0,-99.9,-100.00,South,172,7.0,-999.0,-999,0.00,,,0.28,,2013-01-11 23:33:00,
2013-01-11 17:43:00,58.0,-99.9,-100.00,South,172,7.0,-999.0,-999,0.00,,,0.28,,2013-01-11 23:43:00,
2013-01-11 17:54:00,58.0,-99.9,-100.00,South,172,7.0,-999.0,-999,0.00,,,0.28,,2013-01-11 23:54:00,
2013-01-11 18:03:00,57.0,-99.9,-100.00,SSE,156,6.0,-999.0,-999,0.00,,,0.26,,2013-01-12 00:03:00,
2013-01-11 18:13:00,57.0,-99.9,-100.00,SSE,156,6.0,-999.0,-999,0.00,,,0.26,,2013-01-12 00:13:00,
2013-01-11 18:23:00,57.0,-99.9,-100.00,SSE,156,6.0,-999.0,-999,0.00,,,0.26,,2013-01-12 00:23:00,
2013-01-11 18:33:00,55.0,-99.9,-100.00,SSE,161,7.0,-999.0,-999,0.00,,,0.23,,2013-01-12 00:33:00,
2013-01-11 18:43:00,55.0,-99.9,-100.00,SSE,161,7.0,-999.0,-999,0.00,,,0.23,,2013-01-12 00:43:00,
2013-01-11 18:53:00,55.0,-99.9,-100.00,SSE,161,7.0,-999.0,-999,0.00,,,0.23,,2013-01-12 00:53:00,
2013-01-11 19:03:00,54.0,-99.9,-100.00,SSE,151,7.0,-999.0,-999,0.00,,,0.17,,2013-01-12 01:03:00,
2013-01-11 19:13:00,54.0,-99.9,-100.00,SSE,151,7.0,-999.0,-999,0.00,,,0.17,,2013-01-12 01:13:00,
2013-01-11 19:23:00,54.0,-99.9,-100.00,SSE,151,7.0,-999.0,-999,0.00,,,0.17,,2013-01-12 01:23:00,
2013-01-11 19:33:00,54.0,-99.9,-100.00,SSE,163,8.0,-999.0,-999,0.00,,,0.11,,2013-01-12 01:33:00,
2013-01-11 19:43:00,54.0,-99.9,-100.00,SSE,163,8.0,-999.0,-999,0.00,,,0.11,,2013-01-12 01:43:00,
2013-01-11 19:53:00,54.0,-99.9,-100.00,SSE,163,8.0,-999.0,-999,0.00,,,0.11,,2013-01-12 01:53:00,
2013-01-11 20:03:00,57.0,-99.9,-100.00,SSE,162,8.0,-999.0,-999,0.00,,,0.07,,2013-01-12 02:03:00,
2013-01-11 20:12:00,57.0,-99.9,-100.00,SSE,162,8.0,-999.0,-999,0.00,,,0.07,,2013-01-12 02:12:00,
2013-01-11 20:22:00,57.0,-99.9,-100.00,SSE,162,8.0,-999.0,-999,0.00,,,0.07,,2013-01-12 02:22:00,
2013-01-11 20:33:00,57.0,-99.9,-100.00,South,177,7.0,-999.0,-999,0.00,,,0.02,,2013-01-12 02:33:00,
2013-01-11 20:43:00,57.0,-99.9,-100.00,South,177,7.0,-999.0,-999,0.00,,,0.02,,2013-01-12 02:43:00,
2013-01-11 20:53:00,57.0,-99.9,-100.00,South,177,7.0,-999.0,-999,0.00,,,0.02,,2013-01-12 02:53:00,
2013-01-11 21:03:00,57.0,-99.9,-100.00,South,188,8.0,-999.0,-999,0.00,,,0.00,,2013-01-12 03:03:00,
2013-01-11 21:12:00,57.0,-99.9,-100.00,South,188,8.0,-999.0,-999,0.00,,,0.00,,2013-01-12 03:12:00,
2013-01-11 21:23:00,57.0,-99.9,-100.00,South,188,8.0,-999.0,-999,0.00,,,0.00,,2013-01-12 03:23:00,
2013-01-11 21:33:00,56.0,-99.9,-100.00,South,176,6.0,-999.0,-999,0.00,,,0.00,,2013-01-12 03:33:00,
2013-01-11 21:43:00,56.0,-99.9,-100.00,South,176,6.0,-999.0,-999,0.00,,,0.00,,2013-01-12 03:43:00,
2013-01-11 21:53:00,56.0,-99.9,-100.00,South,176,6.0,-999.0,-999,0.00,,,0.00,,2013-01-12 03:53:00,
2013-01-11 22:03:00,56.0,-99.9,-100.00,South,182,7.0,-999.0,-999,0.00,,,0.00,,2013-01-12 04:03:00,
2013-01-11 22:12:00,56.0,-99.9,-100.00,South,182,7.0,-999.0,-999,0.00,,,0.00,,2013-01-12 04:12:00,
2013-01-11 22:23:00,56.0,-99.9,-100.00,South,182,7.0,-999.0,-999,0.00,,,0.00,,2013-01-12 04:23:00,
2013-01-11 22:33:00,56.0,-99.9,-100.00,South,179,7.0,-999.0,-999,0.00,,,0.00,,2013-01-12 04:33:00,
2013-01-11 22:43:00,56.0,-99.9,-100.00,South,179,7.0,-999.0,-999,0.00,,,0.00,,2013-01-12 04:43:00,
2013-01-11 22:53:00,56.0,-99.9,-100.00,South,179,7.0,-999.0,-999,0.00,,,0.00,,2013-01-12 04:53:00,
2013-01-11 23:04:00,56.0,-99.9,-100.00,South,183,10.0,-999.0,-999,0.00,,,0.00,,2013-01-12 05:04:00,
2013-01-11 23:12:00,56.0,-99.9,-100.00,South,183,10.0,-999.0,-999,0.00,,,0.00,,2013-01-12 05:12:00,
2013-01-11 23:22:00,56.0,-99.9,-100.00,South,183,10.0,-999.0,-999,0.00,,,0.00,,2013-01-12 05:22:00,
2013-01-11 23:32:00,56.0,-99.9,-100.00,South,185,9.0,-999.0,-999,0.00,,,0.00,,2013-01-12 05:32:00,
2013-01-11 23:42:00,56.0,-99.9,-100.00,South,185,9.0,-999.0,-999,0.00,,,0.00,,2013-01-12 05:42:00,
2013-01-11 23:53:00,56.0,-99.9,-100.00,South,185,9.0,-999.0,-999,0.00,,,0.00,,2013-01-12 05:53:00,